Wind_Speed
12 12 15 12 10 10 12 13 14 13 10 10 8 9 7 14 10 10 10 16 14 10 11 16 19 23 23 24 23 22 22 23 20 15 10 9 10 10 9 11 11 9 6 5
11 18 16 13 13 13 15 15 14 10 13 10 10 12 8 7 11 4 10 9 15 17 13 13 20 22 24 24 25 23 21 20 16 13 12 11 11 10 10 10 12 10 8 7
13 11 12 12 14 15 18 17 15 15 17 7 12 4 2 8 13 9 3 12 18 12 8 10 15 17 18 24 26 22 19 17 16 15 14 12 11 8 10 11 12 14 12 9
12 12 12 11 14 16 20 17 13 16 14 10 3 10 2 9 7 11 8 4 20 20 14 11 11 15 16 19 24 24 21 18 15 14 12 11 10 10 11 10 12 12 13 13
2 3 4 7 9 11 15 9 13 14 15 11 10 9 2 4 6 8 7 7 16 23 18 12 10 11 13 18 22 23 21 20 18 14 10 11 11 10 12 11 11 12 14 14
10 8 7 4 8 11 13 9 9 12 14 16 5 8 17 6 10 15 16 15 12 25 20 16 13 12 16 20 22 24 23 20 18 16 14 12 12 11 9 10 9 11 11 9
5 7 7 4 6 4 6 10 13 11 13 12 1 11 16 9 12 18 19 18 10 25 22 21 19 18 21 26 27 25 22 21 20 18 15 13 13 12 11 9 8 9 9 10
4 10 6 0 2 6 5 9 13 8 9 12 4 9 6 9 11 19 22 20 11 23 24 24 18 16 14 15 20 19 17 17 19 18 17 15 14 12 12 11 9 8 6 8
3 4 4 2 4 8 7 11 8 15 15 16 21 4 12 5 10 15 17 12 12 21 24 25 22 20 16 15 13 12 12 14 16 16 17 16 16 13 11 11 10 9 7 7
2 6 5 5 11 14 9 11 12 12 10 11 9 5 10 10 11 11 8 5 15 20 26 25 25 23 21 20 17 16 13 11 10 13 15 16 15 14 13 14 11 10 10 8
4 8 6 11 7 11 12 12 8 12 10 12 9 4 2 5 8 11 6 4 15 19 21 24 24 25 26 24 22 22 20 18 15 14 13 15 15 15 14 13 11 10 11 8
6 11 16 12 11 9 6 8 9 13 10 13 14 11 6 5 6 7 6 4 5 13 15 17 22 24 27 27 27 25 24 21 18 17 14 14 15 16 15 13 13 13 11 10
8 10 13 7 6 6 7 6 7 9 12 17 14 5 2 4 5 6 6 3 1 6 10 9 15 22 25 31 29 28 26 23 20 18 14 15 14 14 12 12 13 14 14 13
11 13 13 16 9 9 10 11 12 13 15 15 12 15 6 8 8 9 8 6 1 5 5 7 4 12 22 29 31 30 30 29 27 24 19 14 11 11 12 14 16 17 17 18
11 15 14 15 15 17 18 19 17 18 19 20 18 11 13 12 10 13 12 9 7 4 2 4 1 7 15 23 29 29 29 30 29 26 23 19 17 17 17 18 18 19 21 21
11 16 15 20 20 21 23 24 24 23 23 25 23 26 19 18 14 14 13 12 9 7 1 3 5 4 6 14 17 25 29 20 12 23 22 20 18 21 25 25 27 27 27 27
16 16 16 22 16 15 17 19 19 22 22 23 22 18 15 17 19 16 13 12 11 4 2 4 3 2 2 4 5 6 9 24 19 8 12 12 17 21 25 27 27 28 28 33
18 16 15 17 11 13 11 8 10 8 10 13 17 14 10 8 9 13 11 11 12 10 9 9 8 4 2 6 6 5 6 7 5 16 25 19 25 22 22 23 26 30 34 36
10 13 13 12 15 17 17 10 6 6 8 9 9 10 11 11 10 8 9 11 11 10 9 6 5 4 4 3 2 3 5 9 13 15 16 18 19 23 26 28 29 29 27 29
10 9 13 9 10 8 2 5 14 12 12 8 10 10 11 14 12 14 18 16 14 13 12 11 11 12 12 13 13 12 10 12 17 19 21 23 25 27 28 30 31 29 30 34
6 9 16 16 15 11 10 14 9 11 7 7 14 14 11 15 14 17 15 19 18 19 19 19 19 18 19 19 20 22 23 23 22 21 22 25 26 28 31 30 29 27 30 30
10 8 12 13 15 19 12 9 7 10 9 16 20 20 19 23 27 26 26 26 25 23 23 23 24 24 24 24 24 26 27 28 27 27 28 28 28 29 29 29 28 28 28 29
10 12 10 11 5 9 9 11 17 22 24 25 24 23 24 23 26 31 30 30 31 29 29 29 29 30 30 31 30 30 32 32 31 31 31 32 33 33 32 30 29 30 28 27
15 18 16 15 15 15 18 25 24 22 29 33 34 33 31 31 32 32 34 34 35 34 34 35 34 35 38 38 37 37 38 38 38 38 37 37 37 38 38 36 31 27 28 27
14 17 13 19 21 19 18 18 23 28 32 34 34 35 37 36 38 41 43 44 44 44 42 40 40 40 40 42 43 43 44 44 44 44 43 43 42 42 43 42 40 35 28 27
19 17 16 19 17 19 24 27 30 31 31 31 32 34 35 36 38 39 41 45 49 51 50 49 48 47 44 42 42 44 45 47 48 48 46 45 44 45 44 45 44 37 31 28
Wind_Direction
244 248 252 272 278 292 301 309 320 345 342 304 296 297 297 299 329 245 210 205 196 172 196 205 212 204 205 205 211 207 201 202 201 210 213 209 215 229 238 229 216 231 214 190
254 252 257 271 274 281 286 293 304 329 344 332 306 301 300 298 337 267 214 207 190 192 212 216 207 212 211 205 202 201 200 200 202 201 192 195 204 229 239 232 229 229 205 198
248 254 263 272 267 273 273 276 297 310 326 308 342 271 105 350 357 360 320 197 200 209 206 213 218 211 214 202 200 200 193 186 190 193 201 206 217 231 237 229 221 220 211 213
258 264 264 268 270 266 271 272 283 298 314 346 37 303 253 348 27 13 349 233 208 206 196 202 207 210 205 207 199 195 192 183 180 188 202 209 216 223 236 229 229 225 220 226
213 241 242 268 285 273 271 274 268 283 289 297 203 263 192 76 6 3 331 320 209 212 200 200 193 205 201 198 205 201 197 195 197 202 196 199 208 221 238 238 241 227 248 249
251 250 252 275 296 268 258 263 262 265 269 276 258 285 292 351 345 329 326 319 225 204 201 187 177 194 201 199 200 206 210 208 208 202 205 204 204 214 231 238 241 236 245 237
241 227 242 318 307 303 266 251 259 230 226 249 238 297 294 324 324 315 316 319 243 199 202 188 188 188 194 201 204 212 218 211 212 209 209 210 211 214 217 231 246 254 252 235
244 169 187 259 7 331 313 298 291 285 267 283 240 271 299 314 325 309 311 321 209 191 199 196 203 190 189 187 203 213 218 216 215 216 213 210 215 219 228 233 246 252 257 241
201 156 182 213 327 339 322 273 302 287 263 267 274 277 277 322 334 317 308 311 183 191 194 196 202 199 195 189 183 183 197 213 220 220 221 219 219 224 233 238 241 248 251 249
315 277 225 292 310 295 283 288 274 232 268 266 254 267 276 339 353 342 309 250 176 186 191 192 202 206 206 208 210 209 205 207 215 223 227 228 229 224 223 232 232 235 237 240
287 276 272 305 279 292 280 263 249 270 275 295 270 239 97 290 343 353 334 190 167 167 185 195 202 205 210 213 214 210 213 218 227 233 231 229 232 235 228 230 236 237 233 233
288 285 288 295 282 268 247 261 265 275 248 244 289 303 266 275 330 3 359 294 225 181 171 186 203 207 203 207 207 210 211 214 218 222 225 227 224 229 234 233 229 232 238 237
281 283 292 252 225 252 256 262 265 274 271 270 277 247 318 300 322 346 342 6 39 186 151 186 217 221 213 208 207 211 214 211 214 218 218 223 227 232 238 238 239 239 240 240
267 275 272 284 318 289 285 280 270 268 276 278 246 261 323 336 324 318 314 316 312 75 97 169 190 210 215 212 208 208 207 214 214 217 218 224 228 238 242 245 245 249 248 248
266 271 272 266 274 275 274 275 270 266 261 271 268 283 272 300 299 296 297 299 313 335 310 289 215 218 215 215 216 212 208 212 220 219 219 222 227 234 238 244 251 256 259 256
260 264 272 272 277 276 274 272 265 261 258 257 260 264 272 281 281 283 284 291 299 318 292 123 143 199 222 213 232 248 213 208 188 225 229 236 239 249 248 247 250 252 252 255
263 264 267 278 274 276 273 274 263 262 256 252 254 267 267 265 268 278 277 278 284 270 204 145 142 162 228 202 256 359 343 201 201 214 215 220 259 258 251 252 251 253 254 249
256 264 261 264 271 251 271 274 270 271 262 250 250 253 261 253 250 252 252 256 260 264 267 272 273 262 160 129 132 113 113 119 193 246 246 260 248 265 261 261 257 258 261 260
257 240 241 244 249 262 279 272 252 268 296 260 236 249 250 255 250 252 232 236 246 246 231 222 233 233 252 287 77 143 215 227 238 247 251 263 270 273 276 280 281 279 270 261
240 216 222 235 264 276 290 245 248 272 266 237 244 246 249 242 245 237 249 239 232 228 225 242 250 251 259 269 281 293 289 271 269 270 269 272 276 280 283 285 286 283 280 280
227 224 232 243 259 270 264 264 255 246 278 261 238 251 259 256 240 255 246 244 240 235 239 246 254 262 268 274 281 288 295 297 295 287 281 282 282 280 279 281 280 279 278 271
233 238 235 246 255 254 272 277 253 254 267 269 266 267 266 259 251 249 246 250 250 249 250 250 256 259 263 270 276 281 285 289 290 288 285 282 281 279 277 277 275 270 271 268
254 232 245 226 235 249 256 273 263 272 272 268 267 270 266 258 260 255 254 255 252 257 257 256 260 267 269 273 278 280 281 282 283 285 285 287 289 290 286 277 277 275 269 271
253 256 246 262 270 269 277 267 271 278 273 271 271 269 265 262 259 261 262 262 259 257 254 258 260 262 267 269 270 270 273 275 277 279 281 284 286 288 287 286 286 284 279 268
251 256 262 270 280 280 283 281 273 270 272 275 275 276 275 272 263 257 257 261 263 263 263 263 262 261 262 262 264 266 270 273 276 279 281 285 288 288 292 292 293 292 285 272
262 264 263 269 270 274 279 280 284 283 280 279 280 279 279 277 276 272 266 261 260 265 267 266 265 265 264 263 262 265 268 271 275 278 280 282 284 287 288 291 292 292 286 271
Height
3187 3189 3187 3186 3187 3188 3186 3184 3182 3181 3180 3177 3178 3177 3178 3173 3173 3173 3175 3176 3177 3177 3179 3180 3182 3184 3186 3188 3191 3194 3196 3198 3199 3201 3203 3204 3205 3205 3205 3206 3207 3209 3210 3211
3187 3185 3186 3185 3186 3186 3185 3184 3180 3180 3179 3177 3176 3174 3175 3173 3171 3171 3172 3174 3176 3175 3176 3177 3178 3181 3182 3186 3189 3192 3194 3196 3198 3200 3202 3202 3203 3203 3204 3205 3206 3207 3208 3209
3184 3184 3182 3183 3184 3184 3183 3180 3180 3180 3178 3176 3173 3170 3173 3171 3170 3169 3169 3172 3173 3173 3174 3175 3177 3178 3181 3183 3186 3190 3192 3194 3196 3198 3199 3200 3201 3202 3203 3203 3204 3204 3206 3208
3183 3182 3181 3182 3182 3182 3179 3179 3179 3178 3177 3173 3174 3171 3169 3170 3169 3168 3168 3167 3170 3170 3172 3173 3174 3176 3178 3182 3185 3188 3191 3193 3194 3196 3197 3199 3200 3201 3201 3201 3201 3203 3204 3207
3180 3180 3180 3180 3179 3178 3177 3176 3177 3177 3175 3173 3172 3172 3165 3167 3170 3169 3168 3166 3165 3167 3169 3171 3172 3174 3177 3180 3183 3186 3189 3191 3193 3195 3196 3197 3198 3199 3199 3199 3200 3201 3203 3203
3179 3178 3179 3178 3177 3176 3175 3175 3175 3175 3174 3170 3166 3170 3164 3164 3167 3166 3165 3163 3162 3163 3166 3169 3171 3174 3176 3179 3182 3185 3187 3189 3191 3193 3194 3195 3196 3197 3198 3199 3199 3200 3200 3201
3177 3177 3178 3177 3176 3174 3174 3172 3168 3166 3164 3161 3163 3166 3164 3163 3163 3162 3162 3160 3158 3159 3163 3165 3167 3170 3174 3177 3180 3183 3185 3187 3189 3191 3192 3194 3195 3196 3196 3197 3197 3198 3198 3199
3173 3175 3177 3177 3177 3176 3174 3172 3167 3163 3160 3158 3161 3163 3161 3162 3163 3161 3158 3156 3154 3156 3161 3163 3166 3169 3172 3174 3177 3180 3183 3186 3187 3188 3190 3192 3193 3193 3195 3195 3196 3197 3196 3197
3174 3174 3176 3176 3175 3176 3172 3172 3170 3168 3164 3164 3160 3161 3162 3163 3162 3159 3156 3154 3153 3155 3159 3163 3166 3168 3170 3172 3174 3177 3180 3183 3185 3186 3188 3189 3190 3191 3193 3194 3194 3195 3196 3197
3177 3174 3175 3175 3174 3172 3172 3171 3169 3165 3162 3160 3154 3160 3159 3160 3160 3157 3154 3153 3153 3155 3158 3161 3164 3167 3169 3172 3174 3176 3178 3180 3182 3183 3184 3186 3187 3188 3189 3191 3192 3193 3194 3195
3177 3176 3174 3173 3171 3171 3170 3168 3167 3166 3164 3157 3153 3153 3158 3160 3159 3157 3155 3153 3154 3154 3156 3158 3161 3164 3166 3169 3171 3174 3176 3178 3180 3181 3182 3183 3184 3185 3186 3187 3190 3191 3191 3193
3176 3175 3171 3170 3170 3168 3168 3168 3167 3164 3160 3160 3159 3157 3157 3158 3158 3157 3155 3153 3153 3151 3151 3155 3158 3159 3162 3164 3165 3169 3171 3174 3176 3177 3178 3179 3180 3182 3183 3185 3186 3187 3189 3190
3175 3172 3169 3165 3167 3167 3167 3167 3166 3165 3163 3159 3159 3154 3157 3157 3157 3156 3156 3154 3153 3148 3145 3150 3154 3156 3158 3160 3162 3166 3168 3171 3172 3174 3175 3176 3177 3178 3180 3182 3184 3185 3186 3187
3173 3171 3170 3166 3165 3167 3166 3165 3165 3165 3161 3156 3157 3155 3158 3159 3157 3155 3155 3154 3154 3152 3150 3152 3153 3153 3154 3155 3158 3159 3162 3166 3168 3170 3171 3174 3175 3176 3177 3179 3180 3182 3183 3184
3170 3168 3167 3166 3165 3164 3163 3162 3161 3161 3160 3158 3156 3156 3158 3158 3156 3154 3154 3153 3152 3152 3151 3153 3152 3152 3151 3151 3153 3154 3156 3160 3165 3168 3169 3169 3170 3171 3173 3174 3176 3178 3179 3181
3166 3165 3164 3162 3161 3159 3157 3156 3155 3155 3155 3154 3154 3154 3156 3153 3153 3152 3152 3151 3151 3151 3153 3150 3152 3150 3148 3148 3148 3152 3144 3148 3147 3165 3168 3167 3166 3168 3169 3170 3171 3172 3173 3175
3163 3161 3161 3156 3156 3154 3151 3147 3147 3147 3147 3149 3149 3151 3150 3150 3149 3149 3149 3148 3149 3149 3149 3150 3150 3147 3146 3146 3145 3143 3137 3141 3151 3160 3163 3161 3161 3161 3163 3164 3164 3166 3167 3168
3156 3157 3157 3154 3154 3150 3143 3142 3142 3143 3142 3143 3145 3146 3147 3146 3146 3146 3146 3146 3146 3146 3146 3146 3146 3145 3144 3145 3146 3146 3148 3153 3158 3158 3156 3155 3153 3156 3156 3157 3158 3158 3159 3159
3150 3152 3152 3150 3146 3144 3141 3141 3142 3142 3142 3141 3142 3144 3144 3144 3144 3143 3143 3142 3142 3142 3142 3142 3143 3143 3143 3142 3144 3148 3150 3151 3150 3150 3147 3146 3147 3147 3148 3147 3148 3149 3149 3150
3146 3147 3150 3147 3145 3139 3139 3137 3138 3139 3140 3138 3140 3141 3142 3141 3144 3141 3140 3139 3139 3139 3139 3139 3139 3140 3140 3140 3139 3139 3142 3145 3144 3142 3141 3141 3139 3139 3138 3138 3137 3138 3139 3139
3143 3144 3143 3142 3141 3139 3135 3136 3137 3139 3140 3134 3134 3136 3137 3138 3141 3136 3136 3136 3136 3135 3134 3134 3134 3134 3134 3134 3134 3132 3131 3131 3131 3132 3132 3131 3130 3130 3130 3129 3129 3130 3130 3130
3140 3140 3138 3138 3137 3136 3132 3134 3136 3132 3131 3129 3129 3129 3130 3130 3130 3130 3130 3130 3130 3130 3130 3129 3129 3128 3128 3128 3128 3127 3126 3125 3124 3123 3122 3121 3121 3122 3123 3123 3122 3121 3121 3121
3136 3135 3135 3135 3132 3130 3129 3129 3126 3126 3125 3124 3124 3124 3123 3123 3123 3122 3123 3124 3123 3123 3123 3123 3122 3120 3120 3120 3120 3119 3118 3118 3117 3116 3115 3113 3112 3111 3112 3113 3112 3112 3112 3111
3129 3127 3129 3129 3127 3126 3123 3122 3120 3119 3117 3116 3116 3116 3116 3116 3115 3114 3114 3113 3113 3113 3114 3113 3114 3113 3112 3112 3112 3112 3110 3108 3108 3108 3107 3106 3104 3102 3100 3100 3101 3102 3102 3102
3126 3121 3122 3121 3119 3118 3116 3114 3112 3109 3109 3108 3107 3106 3104 3104 3104 3104 3103 3102 3101 3101 3101 3102 3103 3103 3103 3102 3102 3100 3100 3098 3097 3096 3095 3094 3093 3091 3089 3088 3088 3090 3091 3091
3117 3116 3117 3115 3115 3111 3108 3107 3104 3101 3100 3100 3097 3096 3096 3094 3092 3092 3091 3091 3090 3089 3088 3088 3090 3090 3089 3090 3091 3089 3088 3087 3086 3084 3084 3083 3082 3081 3080 3078 3076 3077 3077 3078